Location: Kuffner-Sternwarte
(48.2130°N, 16.2960°E)
Time: 22:05:50
(UTC+01:00)

COROT - Pass Details

Date: 19 January 2018
Orbit: 599 x 890 km, 90.0° (Epoch: 19 January)

Event Time Altitude Azimuth Distance (km) Brightness Sun altitude
Rises 18:16:03 0° 220° (SW) 3,083 10.0 -16.6°
Reaches altitude 10° 18:19:09 10° 241° (WSW) 2,113 9.4 -17.1°
Maximum altitude 18:22:06 17° 281° (W) 1,671 8.7 -17.6°
Drops below altitude 10° 18:24:57 10° 321° (NW) 2,031 8.6 -18.1°
Sets 18:27:53 0° 343° (NNW) 2,907 9.1 -18.6°
